sat.trackr.live / text

‹ back to catalog

STARLINK-11725 [DTC]

NORAD 64125 · 2025-111C

PAYLOAD ACTIVE UNKNOWN

§ Identity

Operator
Country
US
Launch date
2025-05-24
Launch site
AFETR
Launch vehicle
Mass (kg)
RCS (m²)

Purposes: comms

External: N2YO · Heavens-Above · Gunter

§ Orbital elements

Epoch: 2026-05-25T03:39:25.512768Z

Period
91.67 min
Inclination
43.0003°
Eccentricity
0.0001070
Mean motion
15.70894986 rev/d
Perigee alt
355.6 km
Apogee alt
357.1 km
Semi-major
6,734.5 km
B*
1.5585e-3
RAAN
233.0532°
Arg perigee
274.5470°
Mean anomaly
85.5275°
Rev number
5,866

§ Raw data

STARLINK-11725 [DTC]1 64125U 25111C   26145.15237862  .00205011  00000+0  15585-2 0  99942 64125  43.0003 233.0532 0001070 274.5470  85.5275 15.70894986 58669

JSON: /api/v1/satellites/64125 · /tle

For live sub-satellite position, see the globe view (requires WebGL).

§ Visibility from observer

Set your observer location to see the next 7 days of passes ≥ 10°. The values pass through the URL so the page stays shareable.

No JS? Fill the form by hand. The geolocation button needs JavaScript.